Regional Weather Roundup
Issued by NWS

Home | Current Version | Previous Version | Text Only | Print | Product List | Glossary Off
Versions: 1 2 3 4 5 6 7 8 9 10 11 12 13 14 15 16 17 18 19 20 21 22 23 24 25 26 27 28 29 30 31 32 33 34 35 36 37 38 39 40 41 42 43 44 45 46 47 48 49 50

000
ASUS45 KTFX 281110
RWRMT
MONTANA REGIONAL WEATHER ROUNDUP
NATIONAL WEATHER SERVICE GREAT FALLS MT
500 AM MDT WED JUN 28 2017

NOTE: "FAIR" INDICATES FEW OR NO CLOUDS BELOW 12000 FEET WITH NO
SIGNIFICANT WEATHER AND/OR OBSTRUCTIONS TO VISIBILITY.

MTZ001>007-043-281200-
WEST OF THE DIVIDE

CITY           SKY/WX    TMP DP  RH WIND       PRES   REMARKS
KALISPELL      PTCLDY    44  44 100 NE3       29.78S
MISSOULA       PTCLDY    51  41  68 CALM      29.83S
BUTTE          CLOUDY    47  43  86 CALM      29.92S
MULLAN PASS    PTCLDY    49  34  56 VRB5      29.93S
ANACONDA         N/A     52  41  66 S7        29.88S
DEER LODGE       N/A     50  45  81 CALM      29.89S
EUREKA           N/A     48  41  76 CALM      29.77R
HAMILTON         N/A     57  46  67 CALM      29.85R
$$

MTZ008-052>055-281200-
SOUTHWEST MONTANA

CITY           SKY/WX    TMP DP  RH WIND       PRES   REMARKS
BOZEMAN        CLEAR     47  45  93 SE7       29.87S
DILLON         CLOUDY    50  42  74 S10       29.90S
W YELLOWSTONE  CLOUDY    45  45 100 CALM      30.01S
ENNIS          MOCLDY    52  43  71 S9        29.96S
THREE FORKS      N/A     51  49  93 CALM      29.87S
$$

MTZ009-010-012-014-046-048-049-054-281200-
EAST SLOPES AND CENTRAL MONTANA

CITY           SKY/WX    TMP DP  RH WIND       PRES   REMARKS
CUT BANK       CLOUDY    54  38  54 W9        29.76R
GREAT FALLS    CLOUDY    50  38  63 SW8       29.78R
MALMSTROM AFB  CLOUDY    49  42  76 SW10      29.77S
HELENA         MOCLDY    58  43  57 CALM      29.83R
CHOTEAU          N/A     57  36  44 CALM      29.79S
$$

MTZ011-013-016-021-045-047-050-051-281200-
NORTH CENTRAL MONTANA

CITY           SKY/WX    TMP DP  RH WIND       PRES   REMARKS
HAVRE          MOCLDY    50  44  80 E6        29.70R
LEWISTOWN      CLEAR     51  45  79 E5        29.79R
N BAR RANCH      N/A     50  41  71 VRB3      29.82S
CHINOOK          N/A     57  45  62 E3        29.70R
FORT BENTON      N/A     57  50  77 MISG      29.75R
$$

MTZ017>020-022>027-061-062-281200-
NORTHEAST MONTANA

CITY           SKY/WX    TMP DP  RH WIND       PRES   REMARKS
GLASGOW        CLEAR     50  38  63 E6        29.75R
JORDAN           N/A     53  51  93 CALM      29.75S
SIDNEY         CLEAR     53  44  71 CALM      29.73R
WOLF POINT     CLEAR     45  41  86 W5        29.75R
MALTA          CLEAR     50  46  87 E3        29.73F
PLENTYWOOD       N/A     46  41  81 CALM      29.71S
POPLAR           N/A     46  43  87 CALM      29.74R
$$

MTZ028>42-056>058-281200-
SOUTHCENTRAL AND SOUTHEAST MONTANA

CITY           SKY/WX    TMP DP  RH WIND       PRES   REMARKS
BAKER          CLEAR     53  50  89 W8        29.78R
BILLINGS       CLOUDY    60  45  57 SW9       29.79S
LIVINGSTON     CLOUDY    59  45  59 W16       29.85R
MILES CITY     CLEAR     55  52  89 CALM      29.76S
BIG TIMBER     CLEAR     55  46  71 W14       29.86S
LAUREL           N/A     53  44  71 CALM      29.80S
ROUNDUP          N/A     57  46  66 S9        29.72S
$$

REGIONAL REPORTS...DAKOTAS

CITY           SKY/WX    TMP DP  RH WIND       PRES   REMARKS
WILLISTON      CLEAR     54  40  59 N8        29.71R
MINOT          PTCLDY    60  55  83 NW14      29.61R
DICKINSON      CLOUDY    56  54  93 NW9       29.70R
BEACH            N/A     48  48 100 CALM      29.79R
CROSBY           N/A     50  45  81 NW15      29.70R
TIOGA            N/A     50  46  87 NW7       29.72R
WATFORD CITY     N/A     50  45  81 CALM      29.73R
BISMARCK       CLOUDY    64  60  87 NW9       29.61R
GRAND FORKS    LGT RAIN  63  61  93 NW5       29.51R
FARGO          CLOUDY    67  62  84 SE16      29.48R
BUFFALO SD       N/A     57  53  86 NW9       29.71R
RAPID CITY     CLEAR     59  50  72 NW13      29.77R
$$

REGIONAL REPORTS...WYOMING/IDAHO/WASHINGTON

CITY           SKY/WX    TMP DP  RH WIND       PRES   REMARKS
GILLETTE       CLEAR     53  50  89 CALM      29.85S
SHERIDAN       PTCLDY    50  46  86 CALM      29.83R
BUFFALO WY     CLEAR     52  41  66 SW9       29.89S
CODY           CLEAR     58  41  53 CALM      29.89R
YELLOWSTONE LA   N/A     36  36 100 CALM      30.07S
IDAHO FALLS    CLOUDY    57  52  83 SE7       29.97R
SALMON         CLOUDY    52  46  82 SE3       29.90S
BOISE          PTCLDY    64  48  56 NE8       29.83R
SPOKANE        PTCLDY    57  44  62 SE7       29.80S
$$

REGIONAL REPORTS...ALBERTA

CITY           SKY/WX    TMP DP  RH WIND       PRES   REMARKS
EDMONTON       CLOUDY    54  48  82 W13G20    29.59F
CALGARY        PTCLDY    50  43  76 SW5       29.73F
LETHBRIDGE     CLEAR     48  43  81 NW7       29.75R
MEDICINE HAT   CLEAR     55  43  62 NE12G17   29.70S
CARDSTON         N/A     46  41  81 W2          N/A
MILK RIVER       N/A     50  45  81 NW10        N/A
$$

REGIONAL REPORTS...SASKATCHEWAN

CITY           SKY/WX    TMP DP  RH WIND       PRES   REMARKS
SWIFT CURRENT  MOCLDY    48  41  76 S8        29.73S
REGINA         PTCLDY    43  41  93 W8        29.69S
SASKATOON      PTCLDY    46  45  93 SW10      29.69R
CYPRESS HILLS    N/A     48  36  61 E7          N/A
VAL MARIE        N/A     43  37  81 E3          N/A
ROCKGLEN         N/A     52  37  58 N8          N/A
$$



USA.gov is the U.S. government's official web portal to all federal, state and local government web resources and services.